Main page
METAR-TAF:

METAR-TAF

Airports :

Mahshahr Airport

Mahshahr, Iran

latitude: 30-33-23N, longitude: 049-09-07E, elevation: 2 m

Current weather observation

The report was made 42 minutes ago, at 15:00 UTC
Wind 6 kt from the South
Temperature 33°C
Humidity 44%
Pressure 1006 hPa
Visibility 10 km or more
no clouds below 1500 m and no cumulonimbus

METAR: OIAM 201500Z 19006KT CAVOK 33/19 Q1006

Time: 20:12 (15:42 UTC)


TAF: missing

Weather observations and forecasts of more than 4000 airports (METAR and TAF reports).

The available stations are represented by yellow and red dots on the map.

Hover mouse over dot to see the name of the station.

Then click to see weather observations and forecasts.

To change the map : click on the green buttons with a black cross to zoom in, on the green button with a dash to zoom out, or on the green arrows for adjacent maps.


METAR-TAF: